| time (UTC) | temp F | wind direction | speed knots | gust knots | rain 1hr in | rain 24hr in | rain mn in | humidity % | barometer mb |
| 20260504050731 | 49 | 90 | 0.0 | 0.0 | 0.00 | 0.00 | 0.00 | 47 | 1048.3 |
| 20260504045830 | 49 | 329 | 0.9 | 1.7 | 0.00 | 0.00 | 0.00 | 47 | 1048.3 |
| 20260504044830 | 49 | 315 | 0.0 | 0.0 | 0.00 | 0.00 | 0.00 | 47 | 1048.4 |
| 20260504043830 | 49 | 135 | 0.9 | 1.7 | 0.00 | 0.00 | 0.00 | 47 | 1048.4 |
| 20260504042830 | 50 | 334 | 0.9 | 2.6 | 0.00 | 0.00 | 0.00 | 46 | 1048.3 |
| 20260504041830 | 50 | 157 | 0.9 | 1.7 | 0.00 | 0.00 | 0.00 | 44 | 1048.2 |
| 20260504040833 | 51 | 315 | 0.9 | 1.7 | 0.00 | 0.00 | 0.00 | 44 | 1048.1 |
| 20260504035837 | 50 | 329 | 1.7 | 2.6 | 0.00 | 0.00 | 0.00 | 45 | 1047.9 |
| 20260504033838 | 51 | 315 | 0.0 | 0.0 | 0.00 | 0.00 | 0.00 | 44 | 1047.8 |
| 20260504031936 | 51 | 353 | 0.9 | 1.7 | 0.00 | 0.00 | 0.00 | 43 | 1047.7 |
| 20260504030939 | 52 | 337 | 0.0 | 1.7 | 0.00 | 0.00 | 0.00 | 42 | 1047.7 |
| 20260504024939 | 51 | 22 | 0.0 | 0.9 | 0.00 | 0.00 | 0.00 | 43 | 1047.6 |
| 20260504023938 | 51 | 360 | 0.0 | 0.0 | 0.00 | 0.00 | 0.00 | 43 | 1047.8 |
| 20260504022939 | 51 | 360 | 0.0 | 0.0 | 0.00 | 0.00 | 0.00 | 42 | 1047.6 |
| 20260504021937 | 52 | 360 | 0.0 | 0.0 | 0.00 | 0.00 | 0.00 | 41 | 1047.7 |
| 20260504020939 | 53 | 323 | 0.9 | 2.6 | 0.00 | 0.00 | 0.00 | 40 | 1047.8 |
| 20260504015937 | 53 | 360 | 0.9 | 1.7 | 0.00 | 0.00 | 0.00 | 40 | 1047.9 |
| 20260504014939 | 53 | 353 | 0.9 | 2.6 | 0.00 | 0.00 | 0.00 | 40 | 1047.7 |
| 20260504014036 | 53 | 315 | 1.7 | 3.5 | 0.00 | 0.00 | 0.00 | 39 | 1047.7 |
| 20260504013038 | 53 | 335 | 1.7 | 3.5 | 0.00 | 0.00 | 0.00 | 39 | 1047.7 |
| 20260504012136 | 53 | 337 | 0.9 | 1.7 | 0.00 | 0.00 | 0.00 | 38 | 1047.6 |
| 20260504011140 | 54 | 315 | 0.9 | 1.7 | 0.00 | 0.00 | 0.00 | 38 | 1047.4 |
| 20260504010137 | 54 | 337 | 0.0 | 0.9 | 0.00 | 0.00 | 0.00 | 38 | 1047.3 |
| 20260504005138 | 55 | 315 | 0.0 | 0.9 | 0.00 | 0.00 | 0.00 | 37 | 1047.2 |
| 20260504004138 | 55 | 285 | 0.0 | 0.9 | 0.00 | 0.00 | 0.00 | 35 | 1047.1 |
| 20260504003137 | 56 | 292 | 1.7 | 2.6 | 0.00 | 0.00 | 0.00 | 35 | 1047.1 |
| 20260504002138 | 56 | 315 | 0.9 | 1.7 | 0.00 | 0.00 | 0.00 | 35 | 1046.8 |
| 20260504001139 | 56 | 300 | 2.6 | 3.5 | 0.00 | 0.00 | 0.00 | 34 | 1046.7 |
| 20260504000138 | 56 | 292 | 3.5 | 5.2 | 0.00 | 0.00 | 0.00 | 35 | 1046.6 |
| 20260503235137 | 56 | 315 | 2.6 | 4.3 | 0.00 | 0.00 | 0.00 | 34 | 1046.6 |
| 20260503234138 | 57 | 313 | 1.7 | 2.6 | 0.00 | 0.00 | 0.00 | 33 | 1046.6 |
| 20260503232238 | 58 | 288 | 7.0 | 9.6 | 0.00 | 0.00 | 0.00 | 31 | 1046.5 |
| 20260503231237 | 58 | 320 | 5.2 | 7.8 | 0.00 | 0.00 | 0.00 | 30 | 1046.5 |
| 20260503230240 | 59 | 336 | 7.0 | 12.2 | 0.00 | 0.00 | 0.00 | 30 | 1046.5 |
| 20260503225336 | 59 | 333 | 1.7 | 5.2 | 0.00 | 0.00 | 0.00 | 30 | 1046.5 |
| 20260503224337 | 59 | 337 | 5.2 | 9.6 | 0.00 | 0.00 | 0.00 | 29 | 1046.4 |
| 20260503223339 | 60 | 280 | 3.5 | 6.1 | 0.00 | 0.00 | 0.00 | 29 | 1046.3 |
| 20260503221438 | 59 | 292 | 5.2 | 8.7 | 0.00 | 0.00 | 0.00 | 28 | 1046.4 |
| 20260503220536 | 59 | 20 | 3.5 | 6.1 | 0.00 | 0.00 | 0.00 | 27 | 1046.4 |
| 20260503215539 | 59 | 6 | 2.6 | 4.3 | 0.00 | 0.00 | 0.00 | 28 | 1046.4 |
| 20260503214538 | 59 | 302 | 12.2 | 18.2 | 0.00 | 0.00 | 0.00 | 28 | 1046.0 |
| 20260503213637 | 59 | 317 | 6.1 | 11.3 | 0.00 | 0.00 | 0.00 | 28 | 1046.1 |
| 20260503212637 | 59 | 323 | 9.6 | 15.6 | 0.00 | 0.00 | 0.00 | 28 | 1046.0 |
| 20260503211638 | 59 | 347 | 4.3 | 7.8 | 0.00 | 0.00 | 0.00 | 28 | 1046.2 |
| 20260503210736 | 59 | 295 | 7.0 | 12.2 | 0.00 | 0.00 | 0.00 | 28 | 1046.0 |
| 20260503205737 | 59 | 6 | 4.3 | 7.0 | 0.00 | 0.00 | 0.00 | 28 | 1046.1 |
| 20260503203738 | 58 | 312 | 7.8 | 12.2 | 0.00 | 0.00 | 0.00 | 29 | 1046.4 |
| 20260503202738 | 58 | 346 | 3.5 | 7.0 | 0.00 | 0.00 | 0.00 | 29 | 1046.4 |
| 20260503201837 | 58 | 345 | 6.1 | 11.3 | 0.00 | 0.00 | 0.00 | 30 | 1046.5 |
| 20260503200837 | 57 | 331 | 6.1 | 9.6 | 0.00 | 0.00 | 0.00 | 29 | 1046.6 |
| 20260503194836 | 56 | 324 | 4.3 | 8.7 | 0.00 | 0.00 | 0.00 | 30 | 1047.0 |
| 20260503193836 | 56 | 304 | 7.8 | 10.4 | 0.00 | 0.00 | 0.00 | 30 | 1046.9 |
| 20260503192840 | 56 | 295 | 7.0 | 10.4 | 0.00 | 0.00 | 0.00 | 30 | 1046.9 |
| 20260503191936 | 56 | 21 | 4.3 | 7.8 | 0.00 | 0.00 | 0.00 | 31 | 1047.2 |
| 20260503190937 | 56 | 318 | 5.2 | 10.4 | 0.00 | 0.00 | 0.00 | 31 | 1047.2 |
| 20260503190036 | 56 | 331 | 7.0 | 14.8 | 0.00 | 0.00 | 0.00 | 31 | 1047.1 |
| 20260503185036 | 56 | 329 | 5.2 | 11.3 | 0.00 | 0.00 | 0.00 | 31 | 1047.2 |
| 20260503184037 | 56 | 283 | 9.6 | 13.0 | 0.00 | 0.00 | 0.00 | 30 | 1047.2 |
| 20260503183038 | 56 | 21 | 0.9 | 1.7 | 0.00 | 0.00 | 0.00 | 31 | 1047.2 |
| 20260503182137 | 56 | 342 | 5.2 | 9.6 | 0.00 | 0.00 | 0.00 | 31 | 1047.4 |
| 20260503181139 | 55 | 317 | 7.8 | 11.3 | 0.00 | 0.00 | 0.00 | 31 | 1047.3 |
| 20260503180137 | 55 | 306 | 8.7 | 16.5 | 0.00 | 0.00 | 0.00 | 32 | 1047.2 |
| 20260503175138 | 54 | 325 | 7.0 | 13.9 | 0.00 | 0.00 | 0.00 | 33 | 1047.3 |
| 20260503174236 | 54 | 333 | 3.5 | 6.1 | 0.00 | 0.00 | 0.00 | 33 | 1047.4 |
| 20260503173238 | 55 | 314 | 7.0 | 13.0 | 0.00 | 0.00 | 0.00 | 35 | 1047.6 |
| 20260503172337 | 54 | 2 | 2.6 | 4.3 | 0.00 | 0.00 | 0.00 | 33 | 1047.6 |
| 20260503150736 | 48 | 338 | 6.1 | 10.4 | 0.00 | 0.00 | 0.00 | 44 | 1048.6 |
| 20260503130938 | 46 | 2 | 2.6 | 7.0 | 0.00 | 0.00 | 0.00 | 52 | 1048.5 |
| 20260503080137 | 45 | 4 | 2.6 | 5.2 | 0.00 | 0.01 | 0.00 | 52 | 1045.6 |
| 20260503072137 | 46 | 21 | 5.2 | 10.4 | 0.00 | 0.02 | 0.00 | 51 | 1045.4 |
| 20260503071137 | 46 | 15 | 2.6 | 5.2 | 0.00 | 0.02 | 0.00 | 52 | 1045.4 |
| 20260503070137 | 46 | 24 | 0.9 | 4.3 | 0.00 | 0.02 | 0.00 | 52 | 1045.5 |
| 20260503053536 | 46 | 14 | 0.9 | 2.6 | 0.00 | 0.02 | 0.00 | 54 | 1045.8 |
| 20260503052537 | 46 | 22 | 0.9 | 1.7 | 0.00 | 0.02 | 0.00 | 55 | 1046.1 |